GW0363 Weather Reports


Display with metric or nautical units.
time (UTC)temp
F
wind
direction
speed
MPH
gust
MPH
rain 1hr
in
rain 24hr
in
rain mn
in
humidity
%
barometer
mb
20260504081227 57 22 0.0 0.0 0.00 0.00 0.00 70 1014.2
20260504045646 63 227 1.0 1.0 0.00 0.00 0.00 55 1014.2
20260504044146 64 229 1.0 1.0 0.00 0.00 0.00 59 1014.3
20260504042644 65 172 0.0 1.0 0.00 0.00 0.00 54 1014.3
20260504041144 66 171 1.0 1.0 0.00 0.00 0.00 54 1014.3
20260504035640 67 76 1.0 1.0 0.00 0.00 0.00 50 1014.3
20260504034137 69 60 0.0 1.0 0.00 0.00 0.00 48 1014.2
20260504032635 72 92 1.0 1.0 0.00 0.00 0.00 43 1014.3
20260504031131 74 126 1.0 1.0 0.00 0.00 0.00 37 1014.3
20260504025627 74 43 0.0 0.0 0.00 0.00 0.00 38 1014.4
20260504024124 75 41 0.0 0.0 0.00 0.00 0.00 40 1014.4
20260504022619 76 42 0.0 1.0 0.00 0.00 0.00 35 1014.4
20260504021115 77 33 1.0 1.0 0.00 0.00 0.00 35 1014.7
20260504015611 77 32 0.0 0.0 0.00 0.00 0.00 35 1014.6
20260504014107 78 19 1.0 1.0 0.00 0.00 0.00 29 1014.8
20260504012604 78 23 1.0 2.0 0.00 0.00 0.00 31 1014.8
20260504011100 78 13 1.0 1.0 0.00 0.00 0.00 30 1014.9
20260504005600 79 29 2.0 3.0 0.00 0.00 0.00 32 1015.1
20260504004059 79 25 2.0 2.0 0.00 0.00 0.00 29 1015.1
20260504002554 79 37 2.0 2.0 0.00 0.00 0.00 29 1015.5
20260504001051 79 12 2.0 2.0 0.00 0.00 0.00 29 1015.5
20260503235550 79 3 1.0 1.0 0.00 0.00 0.00 31 1015.8
20260503234048 79 347 3.0 5.0 0.00 0.00 0.00 32 1015.8
20260503232544 79 49 3.0 3.0 0.00 0.00 0.00 30 1016.0
20260503231041 79 31 3.0 3.0 0.00 0.00 0.00 33 1016.4
20260503225538 79 31 3.0 5.0 0.00 0.00 0.00 35 1016.7
20260503224034 78 4 1.0 2.0 0.00 0.00 0.00 39 1016.8
20260503222531 77 0 3.0 5.0 0.00 0.00 0.00 36 1017.1
20260503221030 78 20 1.0 2.0 0.00 0.00 0.00 37 1017.3
20260503215526 78 13 3.0 3.0 0.00 0.00 0.00 35 1017.3
20260503214023 76 350 3.0 3.0 0.00 0.00 0.00 36 1017.4
20260503212521 76 36 3.0 3.0 0.00 0.00 0.00 40 1017.6
20260503211016 76 354 3.0 3.0 0.00 0.00 0.00 41 1017.7
20260503205512 76 120 2.0 2.0 0.00 0.00 0.00 38 1017.8
20260503204008 75 354 4.0 5.0 0.00 0.00 0.00 40 1017.9
20260503202506 75 75 3.0 3.0 0.00 0.00 0.00 40 1018.1
20260503201004 74 23 3.0 5.0 0.00 0.00 0.00 40 1018.5
20260503195500 73 29 4.0 6.0 0.00 0.00 0.00 43 1018.7
20260503194000 73 317 3.0 3.0 0.00 0.00 0.00 45 1018.9
20260503192500 73 9 4.0 6.0 0.00 0.00 0.00 44 1019.0
20260503190955 72 43 2.0 2.0 0.00 0.00 0.00 44 1018.7
20260503185452 71 12 1.0 2.0 0.00 0.00 0.00 45 1019.1
20260503183950 72 28 3.0 3.0 0.00 0.00 0.00 45 1019.2
20260503182449 71 13 3.0 5.0 0.00 0.00 0.00 50 1019.1
20260503180944 71 16 5.0 7.0 0.00 0.00 0.00 50 1019.4
20260503175443 71 215 3.0 3.0 0.00 0.00 0.00 47 1019.6
20260503173943 68 17 3.0 5.0 0.00 0.00 0.00 52 1019.6
20260503172440 67 32 3.0 5.0 0.00 0.00 0.00 53 1019.8
20260503170936 67 33 6.0 9.0 0.00 0.00 0.00 54 1019.7
20260503150912 61 52 0.0 0.0 0.00 0.00 0.00 62 1020.6
20260503130846 49 202 1.0 1.0 0.00 0.00 0.00 88 1020.4